This is the latest recevied weather packets stored in our database for station/object WW4HG. If no packets are shown the sender has not sent any weather packets the latest 10 day(s).
| Time | Temp. | Humidity | Pressure | Rain* | Wind** | Luminosity | Snow |
|---|---|---|---|---|---|---|---|
| 1778152977 | 19.44° C | 75% | 1013.6 hPa | 0 mm | - | 25 W/m² | - |
| 1778152675 | 19.44° C | 75% | 1013.3 hPa | 0 mm | - | 27 W/m² | - |
| 1778152371 | 19.44° C | 74% | 1013.3 hPa | 0 mm | - | 22 W/m² | - |
| 1778152066 | 19.44° C | 74% | 1013.6 hPa | 0 mm | - | 10 W/m² | - |
| 1778151758 | 19.44° C | 74% | 1012.9 hPa | 0 mm | - | 6 W/m² | - |
| 1778151455 | 20° C | 73% | 1012.6 hPa | 0 mm | - | 2 W/m² | - |
| 1778151151 | 20° C | 73% | 1012.3 hPa | 0 mm | - | 2 W/m² | - |
| 1778150848 | 20° C | 72% | 1012.3 hPa | 0 mm | - | 1 W/m² | - |
| 1778150545 | 20° C | 72% | 1013.3 hPa | 0 mm | - | 1 W/m² | - |
| 1778150241 | 20.56° C | 71% | 1013.6 hPa | 0 mm | - | 0 W/m² | - |
| 1778149937 | 20.56° C | 71% | 1014 hPa | 1.78 mm | - | 0 W/m² | - |
| 1778149634 | 20.56° C | 69% | 1014.3 hPa | 1.78 mm | - | 0 W/m² | - |
| 1778149330 | 20.56° C | 66% | 1014.6 hPa | 0 mm | - | 0 W/m² | - |
| 1778149026 | 21.11° C | 64% | 1015 hPa | 0 mm | - | 0 W/m² | - |
| 1778148722 | 21.11° C | 63% | 1014.6 hPa | 0 mm | - | 0 W/m² | - |
| 1778148419 | 21.11° C | 62% | 1014.6 hPa | 0 mm | - | 0 W/m² | - |
| 1778148118 | 21.11° C | 61% | 1014.6 hPa | 0 mm | - | 0 W/m² | - |
| 1778147816 | 21.11° C | 61% | 1014.3 hPa | 0 mm | - | 0 W/m² | - |
| 1778147512 | 21.11° C | 60% | 1014.3 hPa | 0 mm | - | 0 W/m² | - |
| 1778147208 | 21.11° C | 60% | 1014 hPa | 0 mm | - | 0 W/m² | - |
| 1778146905 | 21.11° C | 60% | 1014 hPa | 0 mm | - | 0 W/m² | - |
| 1778146602 | 21.11° C | 60% | 1014 hPa | 0 mm | - | 0 W/m² | - |
| 1778146301 | 21.11° C | 60% | 1014 hPa | 0 mm | - | 0 W/m² | - |
| 1778145997 | 21.11° C | 60% | 1014 hPa | 0 mm | - | 0 W/m² | - |
| 1778145694 | 21.11° C | 60% | 1014 hPa | 0 mm | - | 0 W/m² | - |
* Rain latest hour (hover to see other rain measurements)
** Current wind speed in m/s (hover to see current wind gust speed)